カタログに戻る

CZ-6A DEB

運用中PO
NORAD 61835·DEBRIS·🇨🇳 China

打ち上げ Aug 6, 2024 から Taiyuan Satellite Launch Center

Loading…

次のパス (今後24時間)

TLE

最新Source: Space-Track

元期: Sep 14, 2026, 11:23 UTC

1 61835U 24140ADB 26257.47433357  .00001887  00000-0  73756-3 0  9997
2 61835  88.9933 263.4165 0029177 256.6699 103.1242 14.28991434103698

AllMySatでCZ-6A DEBをリアルタイム追跡

Download on the App Store